User: anonymous   Login
Location: Oshawa
(43.9000°N, 78.8670°W)
Time: 05:28:53
(UTC-04:00)
Language:

SPOT 5 - Orbit

View from above orbital plane
View from above orbital plane
View from above satellite
View from above satellite

Ground track
Ground track

The orbit data is extracted from the following two-line orbital elements,

1 27421U 02021A   17296.81225774  .00000032  00000-0  19156-4 0  9993
2 27421  98.3926   0.1479 0134248 295.0384  63.6912 14.51891683804330
Epoch (UTC): 23 October 2017 19:29:39
Eccentricity: 0.0134248
inclination: 98.3926°
perigee height: 624 km
apogee height: 815 km
right ascension of ascending node: 0.1479°
argument of perigee: 295.0384°
revolutions per day: 14.51891683
mean anomaly at epoch: 63.6912°
orbit number at epoch: 80433

The dashed part of the orbit path shows where the satellite is in the earth's shadow,  

DLR